Total_Precipitation_Accumulation
0.00 0.01 0.01 0.03 0.02 0.01 0.01 0.02 0.06 0.11 0.12 0.15 0.16 0.17 0.20 0.22 0.26 0.27 0.26 0.24 0.23 0.23
0.00 0.00 0.00 0.00 0.00 0.01 0.01 0.02 0.05 0.09 0.10 0.12 0.16 0.18 0.20 0.20 0.22 0.26 0.26 0.26 0.27 0.21
0.00 0.00 0.00 0.00 0.00 0.00 0.01 0.02 0.03 0.05 0.06 0.09 0.12 0.17 0.20 0.19 0.21 0.24 0.28 0.28 0.28 0.25
0.00 0.00 0.00 0.00 0.00 0.00 0.00 0.00 0.01 0.04 0.05 0.06 0.07 0.09 0.14 0.17 0.18 0.23 0.23 0.23 0.28 0.31
0.00 0.00 0.00 0.00 0.00 0.01 0.00 0.01 0.02 0.04 0.03 0.03 0.03 0.03 0.04 0.08 0.12 0.15 0.17 0.18 0.19 0.17
0.00 0.00 0.01 0.01 0.00 0.00 0.01 0.02 0.03 0.03 0.03 0.04 0.04 0.03 0.02 0.04 0.09 0.13 0.15 0.16 0.18 0.18
0.00 0.00 0.01 0.01 0.00 0.00 0.01 0.02 0.02 0.03 0.02 0.02 0.02 0.02 0.03 0.07 0.12 0.15 0.17 0.18 0.20 0.20
0.00 0.01 0.01 0.01 0.01 0.02 0.02 0.02 0.03 0.03 0.04 0.03 0.03 0.05 0.07 0.08 0.10 0.15 0.19 0.21 0.23 0.26
0.00 0.00 0.00 0.00 0.01 0.02 0.03 0.02 0.04 0.05 0.06 0.06 0.09 0.24 0.19 0.16 0.15 0.16 0.20 0.25 0.33 0.41
0.00 0.00 0.00 0.00 0.01 0.02 0.04 0.05 0.04 0.07 0.10 0.11 0.16 0.28 0.24 0.31 0.34 0.41 0.46 0.47 0.44 0.36
0.00 0.00 0.02 0.02 0.05 0.09 0.08 0.14 0.22 0.16 0.21 0.31 0.50 0.62 0.57 0.49 0.42 0.44 0.47 0.44 0.39 0.32
0.01 0.02 0.08 0.22 0.33 0.18 0.31 0.22 0.35 0.39 0.35 0.46 0.61 0.61 0.47 0.43 0.39 0.29 0.19 0.14 0.07 0.03
0.13 0.16 0.30 0.36 0.49 0.32 0.26 0.40 0.46 0.53 0.53 0.47 0.41 0.31 0.19 0.10 0.08 0.05 0.02 0.00 0.00 0.00
0.18 0.20 0.35 0.43 0.41 0.35 0.32 0.39 0.41 0.38 0.32 0.22 0.13 0.06 0.02 0.01 0.01 0.00 0.00 0.00 0.00 0.00